Glenwood, MN

4:21 AM CST on December 13, 2017 (GMT -0600)
Glenwood Municipal

Weather History for KGHW - May, 2013

Change the Weather History Date:

Sunday, May 26, 2013

  Actual Average Record
Temperature  
Mean Temperature 52 °F -  
Max Temperature 57 °F 71 °F 90 °F (1988)
Min Temperature 48 °F 47 °F 33 °F (1970)
Degree Days  
Heating Degree Days 12    
Growing Degree Days 2 (Base 50)    
Moisture  
Dew Point 46 °F    
Average Humidity 77    
Maximum Humidity 82    
Minimum Humidity 67    
Precipitation  
Precipitation 0.00 in - - ()
Sea Level Pressure  
Sea Level Pressure 30.12 in    
Wind  
Wind Speed 17 mph (ESE)    
Max Wind Speed 28 mph    
Max Gust Speed 37 mph    
Visibility 10 miles    
Events      
Averages and records for this station are not official NWS values.
T = Trace of Precipitation, MM = Missing Value Source: NWS Daily Summary

Daily Weather History Graph

Daily Weather History Graph

Search for Another Location

Airport or City:

Trip Planner

Search our weather history database for the weather conditions in past years. The results will help you decide how hot, cold, wet, or windy it might be!

Date:

Astronomy

May. 26, 2013 Rise Set
Actual Time 5:39 AM CDT 8:58 PM CDT
Civil Twilight 5:03 AM CDT 9:34 PM CDT
Nautical Twilight 4:15 AM CDT 10:21 PM CDT
Astronomical Twilight 3:16 AM CDT 11:21 PM CDT
Moon 10:44 PM CDT (5/26) 7:10 AM CDT (5/26)
Length of Visible Light 16h 31m
Length of Day
15h 18m
Waning Gibbous, 96% of the Moon is Illuminated
May 26
Waning Gibbous
May 31
Last Quarter
Jun 8
New
Jun 16
First Quarter
Jun 23
Full

Hourly Weather History & Observations

Time (CDT) Temp. Dew Point Humidity Pressure Visibility Wind Dir Wind Speed Gust Speed Precip Events Conditions
12:13 AM 51.8 °F 46.4 °F 82% 30.17 in 10.0 mi ESE 16.1 mph 23.0 mph N/A   Overcast
12:33 AM 51.8 °F 46.4 °F 82% 30.17 in 10.0 mi ESE 19.6 mph 25.3 mph N/A   Overcast
12:54 AM 51.8 °F 46.4 °F 82% 30.17 in 10.0 mi ESE 15.0 mph - N/A   Overcast
1:13 AM 51.8 °F 44.6 °F 76% 30.18 in 10.0 mi ESE 13.8 mph 19.6 mph N/A   Overcast
1:33 AM 51.8 °F 46.4 °F 82% 30.19 in 10.0 mi ESE 12.7 mph 19.6 mph N/A   Overcast
1:53 AM 51.8 °F 46.4 °F 82% 30.18 in 10.0 mi ESE 10.4 mph - N/A   Overcast
2:13 AM 51.8 °F 46.4 °F 82% 30.16 in 10.0 mi ESE 11.5 mph - N/A   Overcast
2:33 AM 51.8 °F 46.4 °F 82% 30.15 in 10.0 mi ESE 12.7 mph - N/A   Overcast
2:53 AM 51.8 °F 44.6 °F 76% 30.12 in 10.0 mi East 16.1 mph 20.7 mph N/A   Mostly Cloudy
3:13 AM 50.0 °F 44.6 °F 82% 30.12 in 10.0 mi ESE 13.8 mph 19.6 mph N/A   Scattered Clouds
3:33 AM 50.0 °F 42.8 °F 76% 30.13 in 10.0 mi ESE 15.0 mph - N/A   Scattered Clouds
3:53 AM 50.0 °F 42.8 °F 76% 30.15 in 10.0 mi ESE 15.0 mph - N/A   Mostly Cloudy
4:13 AM 50.0 °F 42.8 °F 76% 30.17 in 10.0 mi ESE 10.4 mph - N/A   Overcast
4:33 AM 50.0 °F 42.8 °F 76% 30.17 in 10.0 mi ESE 12.7 mph - N/A   Overcast
4:53 AM 48.2 °F 42.8 °F 82% 30.19 in 10.0 mi SE 13.8 mph 18.4 mph N/A   Mostly Cloudy
5:13 AM 50.0 °F 42.8 °F 76% 30.18 in 10.0 mi ESE 10.4 mph 16.1 mph N/A   Mostly Cloudy
5:34 AM 50.0 °F 42.8 °F 76% 30.16 in 10.0 mi ESE 12.7 mph - N/A   Overcast
5:53 AM 48.2 °F 42.8 °F 82% 30.13 in 10.0 mi East 16.1 mph - N/A   Mostly Cloudy
6:13 AM 48.2 °F 42.8 °F 82% 30.14 in 10.0 mi East 15.0 mph - N/A   Mostly Cloudy
6:34 AM 50.0 °F 44.6 °F 82% 30.16 in 10.0 mi ESE 10.4 mph - N/A   Overcast
6:53 AM 50.0 °F 44.6 °F 82% 30.15 in 10.0 mi East 16.1 mph - N/A   Overcast
7:13 AM 50.0 °F 44.6 °F 82% 30.15 in 10.0 mi ESE 17.3 mph - N/A   Overcast
7:34 AM 50.0 °F 44.6 °F 82% 30.17 in 10.0 mi ESE 15.0 mph - N/A   Overcast
7:53 AM 51.8 °F 44.6 °F 76% 30.14 in 10.0 mi East 18.4 mph 21.9 mph N/A   Overcast
8:13 AM 51.8 °F 44.6 °F 76% 30.12 in 10.0 mi East 24.2 mph - N/A   Overcast
8:34 AM 51.8 °F 44.6 °F 76% 30.09 in 10.0 mi East 25.3 mph 31.1 mph N/A   Overcast
8:53 AM 51.8 °F 44.6 °F 76% 30.11 in 10.0 mi ESE 21.9 mph 27.6 mph N/A   Overcast
9:13 AM 53.6 °F 44.6 °F 72% 30.13 in 10.0 mi ESE 18.4 mph 26.5 mph N/A   Overcast
9:33 AM 53.6 °F 44.6 °F 72% 30.14 in 10.0 mi ESE 18.4 mph 21.9 mph N/A   Overcast
9:53 AM 53.6 °F 44.6 °F 72% 30.15 in 10.0 mi ESE 15.0 mph 19.6 mph N/A   Overcast
10:13 AM 53.6 °F 44.6 °F 72% 30.15 in 10.0 mi ESE 13.8 mph - N/A   Overcast
10:33 AM 53.6 °F 44.6 °F 72% 30.15 in 10.0 mi ESE 18.4 mph 23.0 mph N/A   Overcast
10:53 AM 53.6 °F 44.6 °F 72% 30.15 in 10.0 mi ESE 19.6 mph 25.3 mph N/A   Overcast
11:13 AM 53.6 °F 44.6 °F 72% 30.15 in 10.0 mi ESE 17.3 mph 24.2 mph N/A   Overcast
11:33 AM 51.8 °F 46.4 °F 82% 30.14 in 10.0 mi ESE 19.6 mph 27.6 mph N/A   Overcast
11:53 AM 53.6 °F 46.4 °F 77% 30.13 in 10.0 mi ESE 18.4 mph 26.5 mph N/A   Overcast
12:13 PM 55.4 °F 46.4 °F 72% 30.12 in 10.0 mi ESE 23.0 mph 31.1 mph N/A   Mostly Cloudy
12:33 PM 57.2 °F 46.4 °F 67% 30.12 in 10.0 mi ESE 21.9 mph 28.8 mph N/A   Mostly Cloudy
12:53 PM 55.4 °F 46.4 °F 72% 30.13 in 10.0 mi ESE 19.6 mph - N/A   Overcast
1:13 PM 55.4 °F 46.4 °F 72% 30.13 in 10.0 mi ESE 20.7 mph 24.2 mph N/A   Overcast
1:33 PM 55.4 °F 46.4 °F 72% 30.10 in 10.0 mi ESE 24.2 mph 28.8 mph N/A   Overcast
1:53 PM 55.4 °F 46.4 °F 72% 30.09 in 10.0 mi ESE 27.6 mph 36.8 mph N/A   Overcast
2:14 PM 55.4 °F 46.4 °F 72% 30.10 in 10.0 mi ESE 23.0 mph 28.8 mph N/A   Overcast
2:33 PM 55.4 °F 46.4 °F 72% 30.10 in 10.0 mi East 24.2 mph 28.8 mph N/A   Overcast
2:53 PM 55.4 °F 46.4 °F 72% 30.10 in 10.0 mi ESE 24.2 mph 29.9 mph N/A   Overcast
3:14 PM 53.6 °F 44.6 °F 72% 30.10 in 10.0 mi ESE 24.2 mph 28.8 mph N/A   Overcast
3:33 PM 53.6 °F 46.4 °F 77% 30.11 in 10.0 mi ESE 20.7 mph 27.6 mph N/A   Overcast
3:53 PM 53.6 °F 44.6 °F 72% 30.11 in 10.0 mi ESE 21.9 mph 28.8 mph N/A   Overcast
4:14 PM 53.6 °F 44.6 °F 72% 30.11 in 10.0 mi East 21.9 mph 27.6 mph N/A   Overcast
4:33 PM 53.6 °F 46.4 °F 77% 30.10 in 10.0 mi East 19.6 mph 23.0 mph N/A   Overcast
4:53 PM 55.4 °F 46.4 °F 72% 30.10 in 10.0 mi East 21.9 mph 25.3 mph N/A   Mostly Cloudy
5:14 PM 55.4 °F 48.2 °F 77% 30.09 in 10.0 mi East 19.6 mph 28.8 mph N/A   Overcast
5:33 PM 53.6 °F 48.2 °F 82% 30.09 in 10.0 mi East 18.4 mph 26.5 mph N/A   Overcast
5:53 PM 55.4 °F 48.2 °F 77% 30.09 in 10.0 mi East 18.4 mph - N/A   Overcast
6:14 PM 55.4 °F 46.4 °F 72% 30.09 in 10.0 mi East 15.0 mph - N/A   Overcast
6:33 PM 55.4 °F 46.4 °F 72% 30.09 in 10.0 mi East 17.3 mph - N/A   Overcast
6:53 PM 53.6 °F 46.4 °F 77% 30.10 in 10.0 mi East 16.1 mph 20.7 mph N/A   Overcast
7:13 PM 53.6 °F 46.4 °F 77% 30.10 in 10.0 mi ESE 15.0 mph 21.9 mph N/A   Overcast
7:34 PM 55.4 °F 46.4 °F 72% 30.10 in 10.0 mi ESE 13.8 mph 18.4 mph N/A   Overcast
7:53 PM 53.6 °F 46.4 °F 77% 30.10 in 10.0 mi ESE 13.8 mph - N/A   Overcast
8:13 PM 53.6 °F 46.4 °F 77% 30.09 in 10.0 mi ESE 13.8 mph - N/A   Overcast
8:33 PM 53.6 °F 46.4 °F 77% 30.08 in 10.0 mi ESE 16.1 mph 21.9 mph N/A   Overcast
8:53 PM 53.6 °F 46.4 °F 77% 30.09 in 10.0 mi ESE 17.3 mph - N/A   Overcast
9:13 PM 53.6 °F 48.2 °F 82% 30.09 in 10.0 mi ESE 12.7 mph - N/A   Overcast
9:34 PM 53.6 °F 48.2 °F 82% 30.08 in 10.0 mi ESE 15.0 mph 21.9 mph N/A   Overcast
9:53 PM 53.6 °F 48.2 °F 82% 30.08 in 10.0 mi ESE 18.4 mph 23.0 mph N/A   Overcast
10:13 PM 53.6 °F 48.2 °F 82% 30.07 in 10.0 mi ESE 16.1 mph 20.7 mph N/A   Overcast
10:34 PM 53.6 °F 48.2 °F 82% 30.06 in 10.0 mi East 16.1 mph - N/A   Overcast
10:53 PM 53.6 °F 48.2 °F 82% 30.05 in 10.0 mi ESE 15.0 mph - N/A   Overcast
11:13 PM 53.6 °F 48.2 °F 82% 30.02 in 10.0 mi East 16.1 mph - N/A   Overcast
11:34 PM 53.6 °F 48.2 °F 82% 30.01 in 10.0 mi East 15.0 mph - N/A   Overcast
11:53 PM 53.6 °F 48.2 °F 82% 30.04 in 10.0 mi ESE 15.0 mph 24.2 mph N/A   Overcast